Time,TemperatureF,DewpointF,PressureIn,WindDirection,WindDirectionDegrees,WindSpeedMPH,WindSpeedGustMPH,Humidity,HourlyPrecipIn,Conditions,Clouds,dailyrainin,SolarRadiationWatts/m^2,SoftwareType,DateUTC
2013-12-12 00:00:00,33.6,27.8,30.31,SSW,205,0.0,0.0,79,0.00,,CLR,0.00,0.00,VWS V14.01,2013-12-12 05:00:00,
2013-12-12 00:01:00,33.6,27.8,30.31,SSW,205,0.0,0.0,79,0.00,,CLR,0.00,0.00,VWS V14.01,2013-12-12 05:01:00,
2013-12-12 00:02:00,33.5,28.0,30.31,SSW,205,0.0,0.0,80,0.00,,CLR,0.00,0.00,VWS V14.01,2013-12-12 05:02:00,
2013-12-12 00:03:00,33.5,28.0,30.31,SSW,205,0.0,0.0,80,0.00,,CLR,0.00,0.00,VWS V14.01,2013-12-12 05:03:00,
2013-12-12 00:05:00,33.1,28.8,30.30,SSW,205,0.0,0.0,84,0.00,,CLR,0.00,0.00,VWS V15.00,2013-12-12 05:05:00,
2013-12-12 00:08:00,33.5,28.3,30.31,SSW,205,0.0,0.0,81,0.00,,CLR,0.00,0.00,VWS V14.01,2013-12-12 05:08:00,
2013-12-12 00:10:00,33.0,28.7,30.30,SSW,205,0.0,0.0,84,0.00,,CLR,0.00,0.00,VWS V15.00,2013-12-12 05:10:00,
2013-12-12 00:14:00,33.8,28.6,30.31,SSW,205,0.0,0.0,81,0.00,,CLR,0.00,0.00,VWS V14.01,2013-12-12 05:14:00,
2013-12-12 00:15:00,33.0,28.7,30.30,SSW,205,0.0,0.0,84,0.00,,CLR,0.00,0.00,VWS V15.00,2013-12-12 05:15:00,
2013-12-12 00:19:00,33.8,28.3,30.31,SSW,205,0.0,0.0,80,0.00,,CLR,0.00,0.00,VWS V14.01,2013-12-12 05:19:00,
2013-12-12 00:20:00,33.2,28.9,30.30,SSW,205,0.0,0.0,84,0.00,,CLR,0.00,0.00,VWS V15.00,2013-12-12 05:20:00,
2013-12-12 00:24:00,33.7,28.2,30.31,SSW,205,0.0,0.0,80,0.00,,CLR,0.00,0.00,VWS V14.01,2013-12-12 05:24:00,
2013-12-12 00:25:00,33.4,28.8,30.30,SSW,205,0.0,0.0,83,0.00,,CLR,0.00,0.00,VWS V15.00,2013-12-12 05:25:00,
2013-12-12 00:29:00,33.6,28.4,30.31,SSW,205,0.0,0.0,81,0.00,,CLR,0.00,0.00,VWS V14.01,2013-12-12 05:29:00,
2013-12-12 00:30:00,33.8,28.9,30.30,NE,53,2.0,0.0,82,0.00,,CLR,0.00,0.00,VWS V15.00,2013-12-12 05:30:00,
2013-12-12 00:34:00,33.4,28.2,30.30,SSW,205,0.0,0.0,81,0.00,,CLR,0.00,0.00,VWS V14.01,2013-12-12 05:34:00,
2013-12-12 00:35:00,34.1,28.9,30.30,NE,53,1.0,0.0,81,0.00,,CLR,0.00,0.00,VWS V15.00,2013-12-12 05:35:00,
2013-12-12 00:39:00,33.2,28.3,30.30,SSW,205,0.0,0.0,82,0.00,,CLR,0.00,0.00,VWS V14.01,2013-12-12 05:39:00,
2013-12-12 00:40:00,34.2,29.0,30.30,NE,53,1.0,0.0,81,0.00,,CLR,0.00,0.00,VWS V15.00,2013-12-12 05:40:00,
2013-12-12 00:44:00,33.0,28.4,30.30,SSW,205,0.0,0.0,83,0.00,,CLR,0.00,0.00,VWS V14.01,2013-12-12 05:44:00,
2013-12-12 00:45:00,33.8,28.6,30.30,NE,53,0.0,0.0,81,0.00,,CLR,0.00,0.00,VWS V15.00,2013-12-12 05:45:00,
2013-12-12 00:49:00,33.0,28.7,30.30,SSW,205,0.0,0.0,84,0.00,,CLR,0.00,0.00,VWS V14.01,2013-12-12 05:49:00,
2013-12-12 00:50:00,33.4,28.5,30.30,NE,53,1.0,0.0,82,0.00,,CLR,0.00,0.00,VWS V15.00,2013-12-12 05:50:00,
2013-12-12 00:54:00,33.1,28.5,30.30,SSW,205,0.0,0.0,83,0.00,,CLR,0.00,0.00,VWS V14.01,2013-12-12 05:54:00,
2013-12-12 00:55:00,33.2,28.6,30.30,NE,53,0.0,0.0,83,0.00,,CLR,0.00,0.00,VWS V15.00,2013-12-12 05:55:00,
2013-12-12 00:59:00,33.1,28.8,30.30,SSW,205,0.0,0.0,84,0.00,,CLR,0.00,0.00,VWS V14.01,2013-12-12 05:59:00,
2013-12-12 01:00:00,33.2,28.3,30.30,NE,53,0.0,0.0,82,0.00,,CLR,0.00,0.00,VWS V15.00,2013-12-12 06:00:00,
2013-12-12 01:04:00,33.1,28.8,30.30,SSW,205,0.0,0.0,84,0.00,,CLR,0.00,0.00,VWS V14.01,2013-12-12 06:04:00,
2013-12-12 01:05:00,33.2,28.3,30.30,NE,53,0.0,0.0,82,0.00,,CLR,0.00,0.00,VWS V15.00,2013-12-12 06:05:00,
2013-12-12 01:10:00,33.0,28.7,30.30,SSW,205,0.0,0.0,84,0.00,,CLR,0.00,0.00,VWS V14.01,2013-12-12 06:10:00,
2013-12-12 01:15:00,33.1,28.8,30.30,SSW,205,0.0,0.0,84,0.00,,CLR,0.00,0.00,VWS V14.01,2013-12-12 06:15:00,
2013-12-12 01:20:00,33.2,28.9,30.30,SSW,205,0.0,0.0,84,0.00,,CLR,0.00,0.00,VWS V14.01,2013-12-12 06:20:00,
2013-12-12 01:25:00,33.5,28.9,30.30,SSW,205,0.0,0.0,83,0.00,,CLR,0.00,0.00,VWS V14.01,2013-12-12 06:25:00,
2013-12-12 01:30:00,33.8,28.9,30.30,NE,53,1.0,0.0,82,0.00,,CLR,0.00,0.00,VWS V14.01,2013-12-12 06:30:00,
2013-12-12 01:35:00,34.1,28.9,30.30,NE,53,0.0,0.0,81,0.00,,CLR,0.00,0.00,VWS V14.01,2013-12-12 06:35:00,
2013-12-12 01:40:00,34.1,28.9,30.30,NE,53,0.0,0.0,81,0.00,,CLR,0.00,0.00,VWS V14.01,2013-12-12 06:40:00,
2013-12-12 01:45:00,33.8,28.9,30.30,NE,53,0.0,0.0,82,0.00,,CLR,0.00,0.00,VWS V14.01,2013-12-12 06:45:00,
2013-12-12 01:50:00,33.4,28.5,30.30,NE,53,0.0,0.0,82,0.00,,CLR,0.00,0.00,VWS V14.01,2013-12-12 06:50:00,
2013-12-12 01:55:00,33.2,28.6,30.30,NE,53,0.0,0.0,83,0.00,,CLR,0.00,0.00,VWS V14.01,2013-12-12 06:55:00,
2013-12-12 02:00:00,33.2,28.3,30.30,NE,53,0.0,0.0,82,0.00,,CLR,0.00,0.00,VWS V14.01,2013-12-12 07:00:00,
2013-12-12 02:05:00,34.3,28.5,30.30,NW,308,0.0,0.0,79,0.00,,CLR,0.00,0.00,VWS V15.00,2013-12-12 07:05:00,
2013-12-12 02:06:00,33.2,28.3,30.30,NE,53,0.0,0.0,82,0.00,,CLR,0.00,0.00,VWS V14.01,2013-12-12 07:06:00,
2013-12-12 02:10:00,33.9,28.4,30.31,NW,308,0.0,0.0,80,0.00,,CLR,0.00,0.00,VWS V15.00,2013-12-12 07:10:00,
2013-12-12 02:11:00,33.0,28.4,30.30,NE,53,0.0,0.0,83,0.00,,CLR,0.00,0.00,VWS V14.01,2013-12-12 07:11:00,
2013-12-12 02:15:00,33.4,28.2,30.30,NW,317,0.0,0.0,81,0.00,,CLR,0.00,0.00,VWS V15.00,2013-12-12 07:15:00,
2013-12-12 02:16:00,32.9,28.3,30.30,NE,53,0.0,0.0,83,0.00,,CLR,0.00,0.00,VWS V14.01,2013-12-12 07:16:00,
2013-12-12 02:20:00,33.6,28.4,30.30,NW,317,0.0,0.0,81,0.00,,CLR,0.00,0.00,VWS V15.00,2013-12-12 07:20:00,
2013-12-12 02:21:00,32.9,28.3,30.30,NE,53,0.0,0.0,83,0.00,,CLR,0.00,0.00,VWS V14.01,2013-12-12 07:21:00,
2013-12-12 02:25:00,33.9,28.4,30.31,NW,317,0.0,0.0,80,0.00,,CLR,0.00,0.00,VWS V15.00,2013-12-12 07:25:00,
2013-12-12 02:26:00,33.0,28.4,30.30,NE,53,0.0,0.0,83,0.00,,CLR,0.00,0.00,VWS V14.01,2013-12-12 07:26:00,
2013-12-12 02:30:00,33.9,28.4,30.31,NW,317,0.0,0.0,80,0.00,,CLR,0.00,0.00,VWS V15.00,2013-12-12 07:30:00,
2013-12-12 02:31:00,33.0,28.4,30.30,NE,53,0.0,0.0,83,0.00,,CLR,0.00,0.00,VWS V14.01,2013-12-12 07:31:00,
2013-12-12 02:35:00,33.7,28.5,30.30,NW,317,0.0,0.0,81,0.00,,CLR,0.00,0.00,VWS V15.00,2013-12-12 07:35:00,
2013-12-12 02:36:00,33.2,28.3,30.30,NE,53,0.0,0.0,82,0.00,,CLR,0.00,0.00,VWS V14.01,2013-12-12 07:36:00,
2013-12-12 02:40:00,33.8,28.3,30.31,NNW,340,1.0,0.0,80,0.00,,CLR,0.00,0.00,VWS V15.00,2013-12-12 07:40:00,
2013-12-12 02:41:00,33.5,28.6,30.30,NE,53,0.0,0.0,82,0.00,,CLR,0.00,0.00,VWS V14.01,2013-12-12 07:41:00,
2013-12-12 02:45:00,34.2,28.4,30.30,NNW,340,0.0,0.0,79,0.00,,CLR,0.00,0.00,VWS V15.00,2013-12-12 07:45:00,
2013-12-12 02:46:00,34.0,28.8,30.30,NNW,331,1.0,0.0,81,0.00,,CLR,0.00,0.00,VWS V14.01,2013-12-12 07:46:00,
2013-12-12 02:50:00,35.1,28.6,30.31,NNW,328,2.0,0.0,77,0.00,,CLR,0.00,0.00,VWS V15.00,2013-12-12 07:50:00,
2013-12-12 02:51:00,34.3,28.8,30.30,NNW,331,0.0,0.0,80,0.00,,CLR,0.00,0.00,VWS V14.01,2013-12-12 07:51:00,
2013-12-12 02:55:00,35.9,28.8,30.31,NNW,340,1.0,0.0,75,0.00,,CLR,0.00,0.00,VWS V15.00,2013-12-12 07:55:00,
2013-12-12 02:56:00,34.5,28.7,30.30,NW,308,0.0,0.0,79,0.00,,CLR,0.00,0.00,VWS V14.01,2013-12-12 07:56:00,
2013-12-12 03:00:00,36.3,28.8,30.31,NW,325,0.0,0.0,74,0.00,,CLR,0.00,0.00,VWS V15.00,2013-12-12 08:00:00,
2013-12-12 03:01:00,34.4,28.9,30.30,NW,308,0.0,0.0,80,0.00,,CLR,0.00,0.00,VWS V14.01,2013-12-12 08:01:00,
2013-12-12 03:05:00,36.4,28.6,30.31,NNW,338,1.0,0.0,73,0.00,,CLR,0.00,0.00,VWS V15.00,2013-12-12 08:05:00,
2013-12-12 03:06:00,34.3,28.8,30.30,NW,308,0.0,0.0,80,0.00,,CLR,0.00,0.00,VWS V14.01,2013-12-12 08:06:00,
2013-12-12 03:10:00,36.6,28.4,30.30,NNW,329,2.0,0.0,72,0.00,,CLR,0.00,0.00,VWS V15.00,2013-12-12 08:10:00,
2013-12-12 03:11:00,33.7,28.2,30.31,NW,308,0.0,0.0,80,0.00,,CLR,0.00,0.00,VWS V14.01,2013-12-12 08:11:00,
2013-12-12 03:15:00,36.6,28.4,30.30,NW,326,1.0,0.0,72,0.00,,CLR,0.00,0.00,VWS V15.00,2013-12-12 08:15:00,
2013-12-12 03:16:00,33.4,28.2,30.30,NW,317,1.0,0.0,81,0.00,,CLR,0.00,0.00,VWS V14.01,2013-12-12 08:16:00,
2013-12-12 03:20:00,36.6,28.4,30.30,North,351,1.0,0.0,72,0.00,,CLR,0.00,0.00,VWS V15.00,2013-12-12 08:20:00,
2013-12-12 03:21:00,33.7,28.5,30.30,NW,317,0.0,0.0,81,0.00,,CLR,0.00,0.00,VWS V14.01,2013-12-12 08:21:00,
2013-12-12 03:25:00,36.4,28.6,30.30,North,355,0.0,0.0,73,0.00,,CLR,0.00,0.00,VWS V15.00,2013-12-12 08:25:00,
2013-12-12 03:26:00,34.0,28.5,30.31,NW,317,0.0,0.0,80,0.00,,CLR,0.00,0.00,VWS V14.01,2013-12-12 08:26:00,
2013-12-12 03:30:00,36.1,28.3,30.31,NNW,337,1.0,0.0,73,0.00,,CLR,0.00,0.00,VWS V15.00,2013-12-12 08:30:00,
2013-12-12 03:31:00,33.9,28.7,30.30,NW,317,0.0,0.0,81,0.00,,CLR,0.00,0.00,VWS V14.01,2013-12-12 08:31:00,
2013-12-12 03:35:00,35.9,28.4,30.31,NNW,345,0.0,0.0,74,0.00,,CLR,0.00,0.00,VWS V15.00,2013-12-12 08:35:00,
2013-12-12 03:36:00,33.7,28.2,30.30,NW,317,0.0,0.0,80,0.00,,CLR,0.00,0.00,VWS V14.01,2013-12-12 08:36:00,
2013-12-12 03:40:00,35.6,28.1,30.31,North,349,1.0,0.0,74,0.00,,CLR,0.00,0.00,VWS V15.00,2013-12-12 08:40:00,
2013-12-12 03:41:00,33.9,28.4,30.31,NNW,329,0.0,0.0,80,0.00,,CLR,0.00,0.00,VWS V14.01,2013-12-12 08:41:00,
2013-12-12 03:45:00,35.1,28.0,30.31,NNW,346,2.0,0.0,75,0.00,,CLR,0.00,0.00,VWS V15.00,2013-12-12 08:45:00,
2013-12-12 03:46:00,34.5,28.7,30.30,NW,326,1.0,0.0,79,0.00,,CLR,0.00,0.00,VWS V14.01,2013-12-12 08:46:00,
2013-12-12 03:50:00,35.0,27.9,30.31,NE,39,2.0,0.0,75,0.00,,CLR,0.00,0.00,VWS V15.00,2013-12-12 08:50:00,
2013-12-12 03:51:00,35.3,28.8,30.31,NNW,340,1.0,0.0,77,0.00,,CLR,0.00,0.00,VWS V14.01,2013-12-12 08:51:00,
2013-12-12 03:55:00,34.9,27.5,30.31,NNW,331,1.0,0.0,74,0.00,,CLR,0.00,0.00,VWS V15.00,2013-12-12 08:55:00,
2013-12-12 03:56:00,36.0,28.9,30.31,NNW,346,2.0,0.0,75,0.00,,CLR,0.00,0.00,VWS V14.01,2013-12-12 08:56:00,
2013-12-12 04:00:00,34.9,27.1,30.31,NNW,337,2.0,0.0,73,0.00,,CLR,0.00,0.00,VWS V15.00,2013-12-12 09:00:00,
2013-12-12 04:01:00,36.4,28.9,30.31,NNW,346,1.0,0.0,74,0.00,,CLR,0.00,0.00,VWS V14.01,2013-12-12 09:01:00,
2013-12-12 04:05:00,35.1,27.3,30.31,NNW,343,5.0,0.0,73,0.00,,CLR,0.00,0.00,VWS V15.00,2013-12-12 09:05:00,
2013-12-12 04:06:00,36.4,28.6,30.30,North,5,2.0,0.0,73,0.00,,CLR,0.00,0.00,VWS V14.01,2013-12-12 09:06:00,
2013-12-12 04:10:00,35.1,27.0,30.31,North,355,3.0,0.0,72,0.00,,CLR,0.00,0.00,VWS V15.00,2013-12-12 09:10:00,
2013-12-12 04:11:00,36.6,28.8,30.30,NNW,340,1.0,0.0,73,0.00,,CLR,0.00,0.00,VWS V14.01,2013-12-12 09:11:00,
2013-12-12 04:15:00,35.1,27.0,30.31,NNW,345,1.0,0.0,72,0.00,,CLR,0.00,0.00,VWS V15.00,2013-12-12 09:15:00,
2013-12-12 04:16:00,36.6,28.4,30.30,NW,326,2.0,0.0,72,0.00,,CLR,0.00,0.00,VWS V14.01,2013-12-12 09:16:00,
2013-12-12 04:20:00,34.9,26.8,30.31,NW,326,2.0,0.0,72,0.00,,CLR,0.00,0.00,VWS V15.00,2013-12-12 09:20:00,
2013-12-12 04:21:00,36.5,28.7,30.30,North,351,0.0,0.0,73,0.00,,CLR,0.00,0.00,VWS V14.01,2013-12-12 09:21:00,
2013-12-12 04:25:00,34.8,26.0,30.31,North,360,2.0,0.0,70,0.00,,CLR,0.00,0.00,VWS V15.00,2013-12-12 09:25:00,
2013-12-12 04:26:00,36.2,28.4,30.31,North,355,1.0,0.0,73,0.00,,CLR,0.00,0.00,VWS V14.01,2013-12-12 09:26:00,
2013-12-12 04:30:00,34.9,26.1,30.31,North,5,2.0,0.0,70,0.00,,CLR,0.00,0.00,VWS V15.00,2013-12-12 09:30:00,
2013-12-12 04:31:00,36.0,28.5,30.31,NNW,329,1.0,0.0,74,0.00,,CLR,0.00,0.00,VWS V14.01,2013-12-12 09:31:00,
2013-12-12 04:35:00,34.7,25.9,30.31,North,360,1.0,0.0,70,0.00,,CLR,0.00,0.00,VWS V15.00,2013-12-12 09:35:00,
2013-12-12 04:36:00,35.8,28.3,30.31,NNW,343,0.0,0.0,74,0.00,,CLR,0.00,0.00,VWS V14.01,2013-12-12 09:36:00,
2013-12-12 04:40:00,34.5,25.7,30.31,North,5,2.0,0.0,70,0.00,,CLR,0.00,0.00,VWS V15.00,2013-12-12 09:40:00,
2013-12-12 04:41:00,35.4,28.0,30.31,NNW,341,1.0,0.0,74,0.00,,CLR,0.00,0.00,VWS V14.01,2013-12-12 09:41:00,
2013-12-12 04:45:00,34.5,25.4,30.32,NNE,13,4.0,0.0,69,0.00,,CLR,0.00,0.00,VWS V15.00,2013-12-12 09:45:00,
2013-12-12 04:46:00,35.0,27.9,30.31,North,350,1.0,0.0,75,0.00,,CLR,0.00,0.00,VWS V14.01,2013-12-12 09:46:00,
2013-12-12 04:50:00,34.5,25.0,30.32,North,5,2.0,0.0,68,0.00,,CLR,0.00,0.00,VWS V15.00,2013-12-12 09:50:00,
2013-12-12 04:51:00,35.0,27.9,30.31,North,10,1.0,0.0,75,0.00,,CLR,0.00,0.00,VWS V14.01,2013-12-12 09:51:00,
2013-12-12 04:55:00,34.5,25.0,30.32,NNE,14,2.0,0.0,68,0.00,,CLR,0.00,0.00,VWS V15.00,2013-12-12 09:55:00,
2013-12-12 04:56:00,34.8,27.4,30.31,NW,321,2.0,0.0,74,0.00,,CLR,0.00,0.00,VWS V14.01,2013-12-12 09:56:00,
2013-12-12 05:00:00,34.3,24.9,30.32,NNE,15,3.0,0.0,68,0.00,,CLR,0.00,0.00,VWS V15.00,2013-12-12 10:00:00,
2013-12-12 05:02:00,35.0,27.2,30.31,NNW,337,1.0,0.0,73,0.00,,CLR,0.00,0.00,VWS V14.01,2013-12-12 10:02:00,
2013-12-12 05:05:00,34.1,24.7,30.32,North,11,2.0,0.0,68,0.00,,CLR,0.00,0.00,VWS V15.00,2013-12-12 10:05:00,
2013-12-12 05:07:00,35.1,27.3,30.31,NNE,13,1.0,0.0,73,0.00,,CLR,0.00,0.00,VWS V14.01,2013-12-12 10:07:00,
2013-12-12 05:10:00,33.8,24.4,30.32,North,5,3.0,0.0,68,0.00,,CLR,0.00,0.00,VWS V15.00,2013-12-12 10:10:00,
2013-12-12 05:12:00,35.1,27.0,30.31,NNW,339,2.0,0.0,72,0.00,,CLR,0.00,0.00,VWS V14.01,2013-12-12 10:12:00,
2013-12-12 05:15:00,33.8,24.4,30.32,NNE,20,4.0,0.0,68,0.00,,CLR,0.00,0.00,VWS V15.00,2013-12-12 10:15:00,
2013-12-12 05:17:00,35.1,27.0,30.31,North,355,2.0,0.0,72,0.00,,CLR,0.00,0.00,VWS V14.01,2013-12-12 10:17:00,
2013-12-12 05:20:00,33.9,24.1,30.32,NNE,30,2.0,0.0,67,0.00,,CLR,0.00,0.00,VWS V15.00,2013-12-12 10:20:00,
2013-12-12 05:22:00,34.8,26.4,30.31,NNE,15,4.0,0.0,71,0.00,,CLR,0.00,0.00,VWS V14.01,2013-12-12 10:22:00,
2013-12-12 05:25:00,34.0,23.9,30.32,NE,36,2.0,0.0,66,0.00,,CLR,0.00,0.00,VWS V15.00,2013-12-12 10:25:00,
2013-12-12 05:27:00,34.9,26.5,30.31,NNE,16,4.0,0.0,71,0.00,,CLR,0.00,0.00,VWS V14.01,2013-12-12 10:27:00,
2013-12-12 05:30:00,33.8,23.7,30.32,NE,42,3.0,0.0,66,0.00,,CLR,0.00,0.00,VWS V15.00,2013-12-12 10:30:00,
2013-12-12 05:32:00,34.8,26.0,30.31,North,355,1.0,0.0,70,0.00,,CLR,0.00,0.00,VWS V14.01,2013-12-12 10:32:00,
2013-12-12 05:35:00,33.5,23.7,30.33,NE,47,3.0,0.0,67,0.00,,CLR,0.00,0.00,VWS V15.00,2013-12-12 10:35:00,
2013-12-12 05:37:00,34.6,25.8,30.31,North,11,1.0,0.0,70,0.00,,CLR,0.00,0.00,VWS V14.01,2013-12-12 10:37:00,
2013-12-12 05:40:00,33.4,23.6,30.33,NNE,23,3.0,0.0,67,0.00,,CLR,0.00,0.00,VWS V15.00,2013-12-12 10:40:00,
2013-12-12 05:42:00,34.4,25.3,30.32,NNE,13,3.0,0.0,69,0.00,,CLR,0.00,0.00,VWS V14.01,2013-12-12 10:42:00,
2013-12-12 05:45:00,33.6,23.8,30.34,NNE,15,3.0,0.0,67,0.00,,CLR,0.00,0.00,VWS V15.00,2013-12-12 10:45:00,
2013-12-12 05:47:00,34.6,25.5,30.32,NW,315,4.0,0.0,69,0.00,,CLR,0.00,0.00,VWS V14.01,2013-12-12 10:47:00,
2013-12-12 05:50:00,33.6,23.8,30.34,North,349,2.0,0.0,67,0.00,,CLR,0.00,0.00,VWS V15.00,2013-12-12 10:50:00,
2013-12-12 05:52:00,34.5,25.0,30.31,NNE,14,4.0,0.0,68,0.00,,CLR,0.00,0.00,VWS V14.01,2013-12-12 10:52:00,
2013-12-12 05:55:00,33.5,23.7,30.35,NNW,344,2.0,0.0,67,0.00,,CLR,0.00,0.00,VWS V15.00,2013-12-12 10:55:00,
2013-12-12 05:57:00,34.4,25.0,30.32,North,360,2.0,0.0,68,0.00,,CLR,0.00,0.00,VWS V14.01,2013-12-12 10:57:00,
2013-12-12 06:00:00,33.6,23.5,30.35,NNE,24,4.0,0.0,66,0.00,,CLR,0.00,0.00,VWS V15.00,2013-12-12 11:00:00,
2013-12-12 06:02:00,34.1,24.7,30.32,North,5,2.0,0.0,68,0.00,,CLR,0.00,0.00,VWS V14.01,2013-12-12 11:02:00,
2013-12-12 06:05:00,33.5,23.4,30.35,NE,36,3.0,0.0,66,0.00,,CLR,0.00,0.00,VWS V15.00,2013-12-12 11:05:00,
2013-12-12 06:07:00,33.9,24.8,30.32,North,360,1.0,0.0,69,0.00,,CLR,0.00,0.00,VWS V14.01,2013-12-12 11:07:00,
2013-12-12 06:10:00,33.5,23.4,30.36,North,11,4.0,0.0,66,0.00,,CLR,0.00,0.00,VWS V15.00,2013-12-12 11:10:00,
2013-12-12 06:12:00,33.9,24.8,30.32,North,11,2.0,0.0,69,0.00,,CLR,0.00,0.00,VWS V14.01,2013-12-12 11:12:00,
2013-12-12 06:15:00,33.6,23.5,30.36,North,360,1.0,0.0,66,0.00,,CLR,0.00,0.00,VWS V15.00,2013-12-12 11:15:00,
2013-12-12 06:17:00,33.8,24.0,30.32,NNE,24,2.0,0.0,67,0.00,,CLR,0.00,0.00,VWS V14.01,2013-12-12 11:17:00,
2013-12-12 06:20:00,33.3,23.2,30.36,North,355,1.0,0.0,66,0.00,,CLR,0.00,0.00,VWS V15.00,2013-12-12 11:20:00,
2013-12-12 06:23:00,33.9,23.8,30.32,NE,36,2.0,0.0,66,0.00,,CLR,0.00,0.00,VWS V14.01,2013-12-12 11:23:00,
2013-12-12 06:25:00,33.1,23.4,30.37,North,355,0.0,0.0,67,0.00,,CLR,0.00,5.00,VWS V15.00,2013-12-12 11:25:00,
2013-12-12 06:28:00,33.9,23.8,30.32,NE,44,3.0,0.0,66,0.00,,CLR,0.00,0.00,VWS V14.01,2013-12-12 11:28:00,
2013-12-12 06:30:00,32.8,23.4,30.37,NNE,24,3.0,0.0,68,0.00,,CLR,0.00,9.00,VWS V15.00,2013-12-12 11:30:00,
2013-12-12 06:33:00,33.6,23.8,30.33,NNE,32,2.0,0.0,67,0.00,,CLR,0.00,0.00,VWS V14.01,2013-12-12 11:33:00,
2013-12-12 06:35:00,32.7,23.0,30.38,North,355,0.0,0.0,67,0.00,,CLR,0.00,12.00,VWS V15.00,2013-12-12 11:35:00,
2013-12-12 06:38:00,33.4,23.6,30.33,NNE,20,3.0,0.0,67,0.00,,CLR,0.00,0.00,VWS V14.01,2013-12-12 11:38:00,
2013-12-12 06:40:00,32.6,23.2,30.38,North,355,0.0,0.0,68,0.00,,CLR,0.00,14.00,VWS V15.00,2013-12-12 11:40:00,
2013-12-12 06:43:00,33.5,23.7,30.34,NNE,25,2.0,0.0,67,0.00,,CLR,0.00,0.00,VWS V14.01,2013-12-12 11:43:00,
2013-12-12 06:45:00,32.6,23.6,30.39,North,360,2.0,0.0,69,0.00,,CLR,0.00,19.00,VWS V15.00,2013-12-12 11:45:00,
2013-12-12 06:48:00,33.6,23.5,30.34,North,11,2.0,0.0,66,0.00,,CLR,0.00,0.00,VWS V14.01,2013-12-12 11:48:00,
2013-12-12 06:50:00,32.8,23.8,30.39,North,5,2.0,0.0,69,0.00,,CLR,0.00,26.00,VWS V15.00,2013-12-12 11:50:00,
2013-12-12 06:53:00,33.5,23.7,30.35,North,355,3.0,0.0,67,0.00,,CLR,0.00,0.00,VWS V14.01,2013-12-12 11:53:00,
2013-12-12 06:55:00,33.2,23.8,30.39,NNW,339,1.0,0.0,68,0.00,,CLR,0.00,37.00,VWS V15.00,2013-12-12 11:55:00,
2013-12-12 06:58:00,33.5,23.4,30.35,North,360,3.0,0.0,66,0.00,,CLR,0.00,0.00,VWS V14.01,2013-12-12 11:58:00,
2013-12-12 07:00:00,33.7,23.9,30.39,NNE,12,4.0,0.0,67,0.00,,CLR,0.00,49.00,VWS V15.00,2013-12-12 12:00:00,
2013-12-12 07:03:00,33.5,23.4,30.35,NNW,344,2.0,0.0,66,0.00,,CLR,0.00,0.00,VWS V14.01,2013-12-12 12:03:00,
2013-12-12 07:05:00,34.2,23.7,30.40,North,10,4.0,0.0,65,0.00,,CLR,0.00,63.00,VWS V15.00,2013-12-12 12:05:00,
2013-12-12 07:08:00,33.5,23.4,30.36,NNE,19,4.0,0.0,66,0.00,,CLR,0.00,0.00,VWS V14.01,2013-12-12 12:08:00,
2013-12-12 07:10:00,34.6,24.1,30.39,North,355,4.0,0.0,65,0.00,,CLR,0.00,79.00,VWS V15.00,2013-12-12 12:10:00,
2013-12-12 07:13:00,33.6,23.5,30.36,North,5,1.0,0.0,66,0.00,,CLR,0.00,0.00,VWS V14.01,2013-12-12 12:13:00,
2013-12-12 07:15:00,35.0,24.1,30.40,NE,34,4.0,0.0,64,0.00,,CLR,0.00,95.00,VWS V15.00,2013-12-12 12:15:00,
2013-12-12 07:18:00,33.4,23.3,30.36,North,9,1.0,0.0,66,0.00,,CLR,0.00,0.00,VWS V14.01,2013-12-12 12:18:00,
2013-12-12 07:20:00,35.2,24.3,30.40,North,360,4.0,0.0,64,0.00,,CLR,0.00,111.00,VWS V15.00,2013-12-12 12:20:00,
2013-12-12 07:23:00,33.1,23.0,30.37,North,355,1.0,0.0,66,0.00,,CLR,0.00,5.00,VWS V14.01,2013-12-12 12:23:00,
2013-12-12 07:25:00,35.3,24.4,30.40,North,11,3.0,0.0,64,0.00,,CLR,0.00,128.00,VWS V15.00,2013-12-12 12:25:00,
2013-12-12 07:29:00,32.9,23.5,30.37,NNE,15,1.0,0.0,68,0.00,,CLR,0.00,9.00,VWS V14.01,2013-12-12 12:29:00,
2013-12-12 07:30:00,35.5,24.2,30.41,NNE,30,6.0,0.0,63,0.00,,CLR,0.00,146.00,VWS V15.00,2013-12-12 12:30:00,
2013-12-12 07:34:00,32.7,23.0,30.38,North,360,0.0,0.0,67,0.00,,CLR,0.00,11.00,VWS V14.01,2013-12-12 12:34:00,
2013-12-12 07:35:00,35.6,23.9,30.41,NNE,18,4.0,0.0,62,0.00,,CLR,0.00,165.00,VWS V15.00,2013-12-12 12:35:00,
2013-12-12 07:39:00,32.6,23.2,30.38,North,355,0.0,0.0,68,0.00,,CLR,0.00,14.00,VWS V14.01,2013-12-12 12:39:00,
2013-12-12 07:40:00,35.7,24.4,30.41,NNE,13,5.0,0.0,63,0.00,,CLR,0.00,183.00,VWS V15.00,2013-12-12 12:40:00,
2013-12-12 07:44:00,32.6,23.2,30.39,North,360,0.0,0.0,68,0.00,,CLR,0.00,18.00,VWS V14.01,2013-12-12 12:44:00,
2013-12-12 07:45:00,35.9,24.5,30.41,North,5,4.0,0.0,63,0.00,,CLR,0.00,202.00,VWS V15.00,2013-12-12 12:45:00,
2013-12-12 07:49:00,32.8,23.8,30.39,North,355,1.0,0.0,69,0.00,,CLR,0.00,26.00,VWS V14.01,2013-12-12 12:49:00,
2013-12-12 07:50:00,36.1,24.7,30.41,North,5,5.0,0.0,63,0.00,,CLR,0.00,220.00,VWS V15.00,2013-12-12 12:50:00,
2013-12-12 07:54:00,33.2,23.8,30.39,NNW,339,3.0,0.0,68,0.00,,CLR,0.00,37.00,VWS V14.01,2013-12-12 12:54:00,
2013-12-12 07:55:00,36.2,24.8,30.41,NNE,22,5.0,10.0,63,0.00,,CLR,0.00,230.00,VWS V15.00,2013-12-12 12:55:00,
2013-12-12 07:59:00,33.7,23.9,30.39,NNW,333,3.0,0.0,67,0.00,,CLR,0.00,49.00,VWS V14.01,2013-12-12 12:59:00,
2013-12-12 08:00:00,36.4,24.6,30.42,NNE,22,5.0,10.0,62,0.00,,CLR,0.00,246.00,VWS V15.00,2013-12-12 13:00:00,
2013-12-12 08:04:00,34.2,23.7,30.40,NNW,346,6.0,0.0,65,0.00,,CLR,0.00,63.00,VWS V14.01,2013-12-12 13:04:00,
2013-12-12 08:05:00,36.6,24.4,30.42,NNE,22,6.0,12.0,61,0.00,,CLR,0.00,260.00,VWS V15.00,2013-12-12 13:05:00,
2013-12-12 08:09:00,34.6,24.1,30.39,North,11,4.0,0.0,65,0.00,,CLR,0.00,79.00,VWS V14.01,2013-12-12 13:09:00,
2013-12-12 08:10:00,36.8,25.0,30.42,NNE,22,5.0,10.0,62,0.00,,CLR,0.00,275.00,VWS V15.00,2013-12-12 13:10:00,
2013-12-12 08:14:00,35.0,24.1,30.40,NE,34,4.0,0.0,64,0.00,,CLR,0.00,95.00,VWS V14.01,2013-12-12 13:14:00,
2013-12-12 08:15:00,37.0,24.8,30.42,NNE,22,6.0,10.0,61,0.00,,CLR,0.00,290.00,VWS V15.00,2013-12-12 13:15:00,
2013-12-12 08:20:00,35.2,24.3,30.40,NNW,338,4.0,0.0,64,0.00,,CLR,0.00,113.00,VWS V14.01,2013-12-12 13:20:00,
2013-12-12 08:25:00,35.4,24.5,30.41,NNE,17,3.0,0.0,64,0.00,,CLR,0.00,130.00,VWS V14.01,2013-12-12 13:25:00,
2013-12-12 08:30:00,35.5,24.2,30.41,North,350,8.0,0.0,63,0.00,,CLR,0.00,148.00,VWS V14.01,2013-12-12 13:30:00,
2013-12-12 08:35:00,35.6,23.9,30.41,North,11,9.0,0.0,62,0.00,,CLR,0.00,167.00,VWS V14.01,2013-12-12 13:35:00,
2013-12-12 08:40:00,35.7,24.4,30.41,NNE,13,3.0,0.0,63,0.00,,CLR,0.00,186.00,VWS V14.01,2013-12-12 13:40:00,
2013-12-12 08:45:00,35.9,24.5,30.41,NNE,25,6.0,0.0,63,0.00,,CLR,0.00,204.00,VWS V14.01,2013-12-12 13:45:00,
2013-12-12 08:50:00,36.1,24.7,30.41,NE,36,5.0,0.0,63,0.00,,CLR,0.00,223.00,VWS V14.01,2013-12-12 13:50:00,
2013-12-12 08:55:00,36.2,24.8,30.41,NNE,22,5.0,10.0,63,0.00,,CLR,0.00,230.00,VWS V14.01,2013-12-12 13:55:00,
2013-12-12 09:00:00,36.4,24.6,30.42,NNE,22,5.0,10.0,62,0.00,,CLR,0.00,246.00,VWS V14.01,2013-12-12 14:00:00,
2013-12-12 09:05:00,36.6,24.4,30.42,NNE,22,6.0,12.0,61,0.00,,CLR,0.00,260.00,VWS V14.01,2013-12-12 14:05:00,
2013-12-12 09:10:00,36.8,25.0,30.42,NNE,22,5.0,10.0,62,0.00,,CLR,0.00,275.00,VWS V14.01,2013-12-12 14:10:00,
2013-12-12 09:15:00,37.0,24.8,30.42,NNE,22,6.0,10.0,61,0.00,,CLR,0.00,290.00,VWS V14.01,2013-12-12 14:15:00,
2013-12-12 09:20:00,37.2,24.6,30.42,NNE,22,6.0,10.0,60,0.00,,CLR,0.00,304.00,VWS V14.01,2013-12-12 14:20:00,
2013-12-12 09:25:00,37.5,25.3,30.42,North,0,5.0,10.0,61,0.00,,CLR,0.00,318.00,VWS V14.01,2013-12-12 14:25:00,
2013-12-12 09:30:00,37.8,25.6,30.42,North,0,5.0,10.0,61,0.00,,CLR,0.00,330.00,VWS V14.01,2013-12-12 14:30:00,
2013-12-12 09:35:00,38.1,25.5,30.42,NNE,22,6.0,11.0,60,0.00,,CLR,0.00,343.00,VWS V14.01,2013-12-12 14:35:00,
2013-12-12 09:40:00,38.3,24.8,30.42,NNE,22,6.0,11.0,58,0.00,,CLR,0.00,356.00,VWS V14.01,2013-12-12 14:40:00,
2013-12-12 09:45:00,38.3,24.0,30.43,NNE,22,7.0,13.0,56,0.00,,CLR,0.00,368.00,VWS V14.01,2013-12-12 14:45:00,
2013-12-12 09:50:00,38.5,25.0,30.43,NNE,22,8.0,15.0,58,0.00,,CLR,0.00,379.00,VWS V14.01,2013-12-12 14:50:00,
2013-12-12 09:55:00,38.8,24.9,30.43,North,0,7.0,14.0,57,0.00,,CLR,0.00,391.00,VWS V14.01,2013-12-12 14:55:00,
2013-12-12 10:00:00,39.1,25.2,30.43,NNE,22,7.0,12.0,57,0.00,,CLR,0.00,402.00,VWS V14.01,2013-12-12 15:00:00,
2013-12-12 10:05:00,39.1,24.3,30.43,NNE,22,8.0,14.0,55,0.00,,CLR,0.00,411.00,VWS V14.01,2013-12-12 15:05:00,
2013-12-12 10:10:00,39.2,24.4,30.43,NNE,22,7.0,10.0,55,0.00,,CLR,0.00,421.00,VWS V14.01,2013-12-12 15:10:00,
2013-12-12 10:15:00,39.6,25.2,30.43,NNE,22,5.0,9.0,56,0.00,,CLR,0.00,432.00,VWS V14.01,2013-12-12 15:15:00,
2013-12-12 10:20:00,40.0,24.7,30.43,NNE,22,5.0,12.0,54,0.00,,CLR,0.00,443.00,VWS V14.01,2013-12-12 15:20:00,
2013-12-12 10:25:00,40.0,24.7,30.43,NE,45,8.0,13.0,54,0.00,,CLR,0.00,452.00,VWS V14.01,2013-12-12 15:25:00,
2013-12-12 10:30:00,40.2,24.5,30.43,NNE,22,7.0,12.0,53,0.00,,CLR,0.00,462.00,VWS V14.01,2013-12-12 15:30:00,
2013-12-12 10:35:00,42.7,23.9,30.42,NNE,19,3.0,12.0,47,0.00,,CLR,0.00,547.00,VWS V15.00,2013-12-12 15:35:00,
2013-12-12 10:40:00,40.7,24.5,30.44,NE,55,6.0,12.0,52,0.00,,CLR,0.00,483.00,VWS V14.01,2013-12-12 15:40:00,
2013-12-12 10:45:00,40.9,24.6,30.43,NE,35,7.0,12.0,52,0.00,,CLR,0.00,492.00,VWS V14.01,2013-12-12 15:45:00,
2013-12-12 10:50:00,40.9,24.2,30.44,NW,326,5.0,12.0,51,0.00,,CLR,0.00,497.00,VWS V14.01,2013-12-12 15:50:00,
2013-12-12 10:55:00,41.1,24.4,30.43,North,360,6.0,12.0,51,0.00,,CLR,0.00,503.00,VWS V14.01,2013-12-12 15:55:00,
2013-12-12 11:00:00,41.4,24.2,30.43,NE,39,9.0,12.0,50,0.00,,CLR,0.00,512.00,VWS V14.01,2013-12-12 16:00:00,
2013-12-12 11:05:00,41.4,24.2,30.43,North,5,5.0,12.0,50,0.00,,CLR,0.00,517.00,VWS V14.01,2013-12-12 16:05:00,
2013-12-12 11:10:00,41.7,24.5,30.43,NE,52,9.0,12.0,50,0.00,,CLR,0.00,522.00,VWS V14.01,2013-12-12 16:10:00,
2013-12-12 11:15:00,41.6,24.4,30.43,West,275,2.0,12.0,50,0.00,,CLR,0.00,526.00,VWS V14.01,2013-12-12 16:15:00,
2013-12-12 11:20:00,42.0,25.2,30.43,North,349,6.0,12.0,51,0.00,,CLR,0.00,534.00,VWS V14.01,2013-12-12 16:20:00,
2013-12-12 11:25:00,42.4,24.1,30.42,North,360,3.0,12.0,48,0.00,,CLR,0.00,536.00,VWS V14.01,2013-12-12 16:25:00,
2013-12-12 11:30:00,42.6,23.3,30.42,ENE,59,5.0,12.0,46,0.00,,CLR,0.00,543.00,VWS V14.01,2013-12-12 16:30:00,
2013-12-12 11:35:00,44.3,23.8,30.40,ENE,60,3.0,12.0,44,0.00,,CLR,0.00,554.00,VWS V15.00,2013-12-12 16:35:00,
2013-12-12 11:36:00,42.8,24.0,30.42,NNW,346,3.0,12.0,47,0.00,,CLR,0.00,547.00,VWS V14.01,2013-12-12 16:36:00,
2013-12-12 11:40:00,44.6,24.6,30.39,ENE,57,9.0,12.0,45,0.00,,CLR,0.00,555.00,VWS V15.00,2013-12-12 16:40:00,
2013-12-12 11:41:00,42.5,22.1,30.42,NNE,19,5.0,12.0,44,0.00,,CLR,0.00,548.00,VWS V14.01,2013-12-12 16:41:00,
2013-12-12 11:45:00,44.5,22.9,30.39,NNE,20,7.0,12.0,42,0.00,,CLR,0.00,557.00,VWS V15.00,2013-12-12 16:45:00,
2013-12-12 11:46:00,42.6,22.8,30.42,NE,56,4.0,12.0,45,0.00,,CLR,0.00,555.00,VWS V14.01,2013-12-12 16:46:00,
2013-12-12 11:50:00,44.7,23.6,30.38,North,11,3.0,12.0,43,0.00,,CLR,0.00,554.00,VWS V15.00,2013-12-12 16:50:00,
2013-12-12 11:51:00,42.9,24.6,30.41,North,5,5.0,12.0,48,0.00,,CLR,0.00,554.00,VWS V14.01,2013-12-12 16:51:00,
2013-12-12 11:55:00,45.3,23.6,30.39,South,178,1.0,12.0,42,0.00,,CLR,0.00,548.00,VWS V15.00,2013-12-12 16:55:00,
2013-12-12 11:56:00,43.1,23.2,30.41,NW,317,5.0,12.0,45,0.00,,CLR,0.00,559.00,VWS V14.01,2013-12-12 16:56:00,
2013-12-12 12:00:00,45.7,21.6,30.38,WNW,301,2.0,12.0,38,0.00,,CLR,0.00,547.00,VWS V15.00,2013-12-12 17:00:00,
2013-12-12 12:01:00,43.1,23.2,30.41,North,355,8.0,12.0,45,0.00,,CLR,0.00,563.00,VWS V14.01,2013-12-12 17:01:00,
2013-12-12 12:05:00,45.9,23.5,30.38,ENE,63,5.0,12.0,41,0.00,,CLR,0.00,545.00,VWS V15.00,2013-12-12 17:05:00,
2013-12-12 12:06:00,43.1,22.7,30.41,NNE,20,7.0,12.0,44,0.00,,CLR,0.00,559.00,VWS V14.01,2013-12-12 17:06:00,
2013-12-12 12:10:00,46.0,23.0,30.38,NE,44,6.0,12.0,40,0.00,,CLR,0.00,538.00,VWS V15.00,2013-12-12 17:10:00,
2013-12-12 12:11:00,43.1,23.2,30.40,NE,44,3.0,12.0,45,0.00,,CLR,0.00,561.00,VWS V14.01,2013-12-12 17:11:00,
2013-12-12 12:15:00,46.0,22.5,30.38,ESE,111,1.0,12.0,39,0.00,,CLR,0.00,533.00,VWS V15.00,2013-12-12 17:15:00,
2013-12-12 12:16:00,42.9,22.5,30.40,NE,38,6.0,12.0,44,0.00,,CLR,0.00,563.00,VWS V14.01,2013-12-12 17:16:00,
2013-12-12 12:20:00,46.1,21.9,30.38,East,100,0.0,12.0,38,0.00,,CLR,0.00,529.00,VWS V15.00,2013-12-12 17:20:00,
2013-12-12 12:21:00,43.4,23.5,30.40,NNE,17,1.0,12.0,45,0.00,,CLR,0.00,561.00,VWS V14.01,2013-12-12 17:21:00,
2013-12-12 12:25:00,46.7,21.8,30.38,North,360,3.0,12.0,37,0.00,,CLR,0.00,526.00,VWS V15.00,2013-12-12 17:25:00,
2013-12-12 12:26:00,43.9,23.4,30.40,NNE,21,3.0,12.0,44,0.00,,CLR,0.00,563.00,VWS V14.01,2013-12-12 17:26:00,
2013-12-12 12:30:00,47.2,22.3,30.37,WNW,286,1.0,12.0,37,0.00,,CLR,0.00,519.00,VWS V15.00,2013-12-12 17:30:00,
2013-12-12 12:31:00,44.5,24.5,30.40,NE,47,5.0,12.0,45,0.00,,CLR,0.00,559.00,VWS V14.01,2013-12-12 17:31:00,
2013-12-12 12:35:00,47.2,21.0,30.37,North,11,2.0,12.0,35,0.00,,CLR,0.00,508.00,VWS V15.00,2013-12-12 17:35:00,
2013-12-12 12:36:00,44.3,23.8,30.39,NNE,29,4.0,12.0,44,0.00,,CLR,0.00,557.00,VWS V14.01,2013-12-12 17:36:00,
2013-12-12 12:40:00,47.0,20.1,30.37,North,5,5.0,12.0,34,0.00,,CLR,0.00,501.00,VWS V15.00,2013-12-12 17:40:00,
2013-12-12 12:41:00,44.6,24.0,30.39,NNE,28,8.0,12.0,44,0.00,,CLR,0.00,559.00,VWS V14.01,2013-12-12 17:41:00,
2013-12-12 12:45:00,47.0,22.1,30.37,North,9,2.0,12.0,37,0.00,,CLR,0.00,496.00,VWS V15.00,2013-12-12 17:45:00,
2013-12-12 12:46:00,44.6,22.9,30.39,NE,38,6.0,12.0,42,0.00,,CLR,0.00,552.00,VWS V14.01,2013-12-12 17:46:00,
2013-12-12 12:50:00,47.6,22.0,30.37,North,5,3.0,12.0,36,0.00,,CLR,0.00,487.00,VWS V15.00,2013-12-12 17:50:00,
2013-12-12 12:52:00,45.0,23.3,30.39,NNW,346,2.0,12.0,42,0.00,,CLR,0.00,550.00,VWS V14.01,2013-12-12 17:52:00,
2013-12-12 12:55:00,47.6,21.3,30.36,NW,316,2.0,12.0,35,0.00,,CLR,0.00,476.00,VWS V15.00,2013-12-12 17:55:00,
2013-12-12 12:57:00,45.5,22.6,30.38,NNE,16,5.0,12.0,40,0.00,,CLR,0.00,547.00,VWS V14.01,2013-12-12 17:57:00,
2013-12-12 13:00:00,47.8,20.8,30.36,NNW,331,1.0,12.0,34,0.00,,CLR,0.00,468.00,VWS V15.00,2013-12-12 18:00:00,
2013-12-12 13:02:00,45.7,22.2,30.38,WNW,301,3.0,12.0,39,0.00,,CLR,0.00,545.00,VWS V14.01,2013-12-12 18:02:00,
2013-12-12 13:05:00,47.9,20.9,30.36,NE,45,3.0,12.0,34,0.00,,CLR,0.00,459.00,VWS V15.00,2013-12-12 18:05:00,
2013-12-12 13:07:00,46.0,24.8,30.38,North,9,3.0,12.0,43,0.00,,CLR,0.00,541.00,VWS V14.01,2013-12-12 18:07:00,
2013-12-12 13:10:00,48.1,19.6,30.36,NNW,346,5.0,12.0,32,0.00,,CLR,0.00,452.00,VWS V15.00,2013-12-12 18:10:00,
2013-12-12 13:12:00,45.9,22.4,30.38,NNE,27,2.0,12.0,39,0.00,,CLR,0.00,534.00,VWS V14.01,2013-12-12 18:12:00,
2013-12-12 13:15:00,47.9,19.5,30.36,NW,304,4.0,12.0,32,0.00,,CLR,0.00,443.00,VWS V15.00,2013-12-12 18:15:00,
2013-12-12 13:17:00,46.1,24.3,30.38,NNE,23,4.0,12.0,42,0.00,,CLR,0.00,531.00,VWS V14.01,2013-12-12 18:17:00,
2013-12-12 13:20:00,48.2,20.5,30.36,North,355,2.0,12.0,33,0.00,,CLR,0.00,432.00,VWS V15.00,2013-12-12 18:20:00,
2013-12-12 13:22:00,46.4,22.2,30.38,NNW,333,3.0,12.0,38,0.00,,CLR,0.00,527.00,VWS V14.01,2013-12-12 18:22:00,
2013-12-12 13:25:00,48.2,21.2,30.36,North,350,2.0,12.0,34,0.00,,CLR,0.00,422.00,VWS V15.00,2013-12-12 18:25:00,
2013-12-12 13:27:00,46.9,21.4,30.37,WNW,291,2.0,12.0,36,0.00,,CLR,0.00,520.00,VWS V14.01,2013-12-12 18:27:00,
2013-12-12 13:30:00,48.2,19.7,30.35,NNW,330,4.0,12.0,32,0.00,,CLR,0.00,411.00,VWS V15.00,2013-12-12 18:30:00,
2013-12-12 13:32:00,47.3,21.0,30.37,NNW,336,2.0,12.0,35,0.00,,CLR,0.00,512.00,VWS V14.01,2013-12-12 18:32:00,
2013-12-12 13:35:00,48.2,18.2,30.35,NW,320,1.0,12.0,30,0.00,,CLR,0.00,401.00,VWS V15.00,2013-12-12 18:35:00,
2013-12-12 13:37:00,47.0,21.5,30.37,West,264,3.0,12.0,36,0.00,,CLR,0.00,501.00,VWS V14.01,2013-12-12 18:37:00,
2013-12-12 13:40:00,48.5,18.5,30.35,North,5,8.0,12.0,30,0.00,,CLR,0.00,390.00,VWS V15.00,2013-12-12 18:40:00,
2013-12-12 13:42:00,46.8,19.9,30.37,NW,317,2.0,12.0,34,0.00,,CLR,0.00,497.00,VWS V14.01,2013-12-12 18:42:00,
2013-12-12 13:45:00,48.5,16.9,30.35,NW,306,3.0,12.0,28,0.00,,CLR,0.00,378.00,VWS V15.00,2013-12-12 18:45:00,
2013-12-12 13:47:00,47.4,21.8,30.37,NNE,21,3.0,12.0,36,0.00,,CLR,0.00,490.00,VWS V14.01,2013-12-12 18:47:00,
2013-12-12 13:50:00,48.5,16.1,30.35,NW,325,9.0,12.0,27,0.00,,CLR,0.00,366.00,VWS V15.00,2013-12-12 18:50:00,
2013-12-12 13:52:00,47.5,21.9,30.36,NW,324,3.0,12.0,36,0.00,,CLR,0.00,483.00,VWS V14.01,2013-12-12 18:52:00,
2013-12-12 13:55:00,48.2,16.6,30.35,NW,318,4.0,12.0,28,0.00,,CLR,0.00,352.00,VWS V15.00,2013-12-12 18:55:00,
2013-12-12 13:57:00,47.8,21.5,30.36,NW,325,1.0,12.0,35,0.00,,CLR,0.00,473.00,VWS V14.01,2013-12-12 18:57:00,
2013-12-12 14:00:00,48.3,16.7,30.35,NW,313,2.0,12.0,28,0.00,,CLR,0.00,339.00,VWS V15.00,2013-12-12 19:00:00,
2013-12-12 14:03:00,47.9,20.9,30.36,NE,50,3.0,12.0,34,0.00,,CLR,0.00,462.00,VWS V14.01,2013-12-12 19:03:00,
2013-12-12 14:05:00,48.6,17.8,30.35,West,261,1.0,12.0,29,0.00,,CLR,0.00,325.00,VWS V15.00,2013-12-12 19:05:00,
2013-12-12 14:08:00,48.0,20.3,30.36,NNE,27,3.0,12.0,33,0.00,,CLR,0.00,455.00,VWS V14.01,2013-12-12 19:08:00,
2013-12-12 14:10:00,48.9,18.9,30.35,West,269,4.0,12.0,30,0.00,,CLR,0.00,313.00,VWS V15.00,2013-12-12 19:10:00,
2013-12-12 14:13:00,47.9,18.7,30.36,NNE,16,3.0,12.0,31,0.00,,CLR,0.00,446.00,VWS V14.01,2013-12-12 19:13:00,
2013-12-12 14:15:00,48.9,18.9,30.36,NW,315,3.0,7.0,30,0.00,,CLR,0.00,308.00,VWS V15.00,2013-12-12 19:15:00,
2013-12-12 14:18:00,48.1,19.6,30.36,North,360,4.0,12.0,32,0.00,,CLR,0.00,436.00,VWS V14.01,2013-12-12 19:18:00,
2013-12-12 14:23:00,48.2,21.2,30.35,NE,37,4.0,12.0,34,0.00,,CLR,0.00,425.00,VWS V14.01,2013-12-12 19:23:00,
2013-12-12 14:25:00,48.7,17.9,30.36,WNW,288,2.0,7.0,29,0.00,,CLR,0.00,267.00,VWS V15.00,2013-12-12 19:25:00,
2013-12-12 14:28:00,48.1,21.1,30.35,North,360,2.0,12.0,34,0.00,,CLR,0.00,415.00,VWS V14.01,2013-12-12 19:28:00,
2013-12-12 14:30:00,48.8,18.8,30.36,NNW,346,6.0,7.0,30,0.00,,CLR,0.00,250.00,VWS V15.00,2013-12-12 19:30:00,
2013-12-12 14:33:00,48.1,18.9,30.35,North,5,5.0,12.0,31,0.00,,CLR,0.00,404.00,VWS V14.01,2013-12-12 19:33:00,
2013-12-12 14:35:00,48.6,17.8,30.36,NNW,341,2.0,7.0,29,0.00,,CLR,0.00,232.00,VWS V15.00,2013-12-12 19:35:00,
2013-12-12 14:38:00,48.5,17.7,30.35,WNW,297,2.0,12.0,29,0.00,,CLR,0.00,392.00,VWS V14.01,2013-12-12 19:38:00,
2013-12-12 14:40:00,48.4,18.4,30.36,NNW,331,2.0,7.0,30,0.00,,CLR,0.00,213.00,VWS V15.00,2013-12-12 19:40:00,
2013-12-12 14:43:00,48.5,18.5,30.35,North,9,3.0,12.0,30,0.00,,CLR,0.00,378.00,VWS V14.01,2013-12-12 19:43:00,
2013-12-12 14:45:00,48.5,17.7,30.36,NW,307,3.0,7.0,29,0.00,,CLR,0.00,199.00,VWS V15.00,2013-12-12 19:45:00,
2013-12-12 14:48:00,48.5,17.7,30.35,NW,306,3.0,12.0,29,0.00,,CLR,0.00,367.00,VWS V14.01,2013-12-12 19:48:00,
2013-12-12 14:50:00,48.3,17.5,30.36,West,265,6.0,7.0,29,0.00,,CLR,0.00,181.00,VWS V15.00,2013-12-12 19:50:00,
2013-12-12 14:53:00,48.3,16.7,30.35,NW,313,5.0,12.0,28,0.00,,CLR,0.00,355.00,VWS V14.01,2013-12-12 19:53:00,
2013-12-12 14:55:00,48.2,17.5,30.36,NNE,13,4.0,7.0,29,0.00,,CLR,0.00,162.00,VWS V15.00,2013-12-12 19:55:00,
2013-12-12 14:58:00,48.2,17.5,30.35,NNW,347,4.0,12.0,29,0.00,,CLR,0.00,341.00,VWS V14.01,2013-12-12 19:58:00,
2013-12-12 15:00:00,48.2,19.0,30.36,NNW,340,0.0,7.0,31,0.00,,CLR,0.00,144.00,VWS V15.00,2013-12-12 20:00:00,
2013-12-12 15:03:00,48.5,16.9,30.35,West,269,1.0,12.0,28,0.00,,CLR,0.00,330.00,VWS V14.01,2013-12-12 20:03:00,
2013-12-12 15:05:00,48.4,18.4,30.36,NNW,337,2.0,7.0,30,0.00,,CLR,0.00,127.00,VWS V15.00,2013-12-12 20:05:00,
2013-12-12 15:09:00,48.9,18.9,30.35,North,360,6.0,12.0,30,0.00,,CLR,0.00,316.00,VWS V14.01,2013-12-12 20:09:00,
2013-12-12 15:10:00,48.4,18.4,30.36,NW,322,3.0,7.0,30,0.00,,CLR,0.00,111.00,VWS V15.00,2013-12-12 20:10:00,
2013-12-12 15:14:00,48.9,18.1,30.36,ENE,60,3.0,12.0,29,0.00,,CLR,0.00,302.00,VWS V14.01,2013-12-12 20:14:00,
2013-12-12 15:15:00,48.3,18.3,30.36,WNW,288,1.0,7.0,30,0.00,,CLR,0.00,93.00,VWS V15.00,2013-12-12 20:15:00,
2013-12-12 15:20:00,48.3,19.1,30.36,NW,318,2.0,7.0,31,0.00,,CLR,0.00,81.00,VWS V15.00,2013-12-12 20:20:00,
2013-12-12 15:23:00,48.9,18.9,30.36,NW,315,3.0,7.0,30,0.00,,CLR,0.00,308.00,VWS V14.01,2013-12-12 20:23:00,
2013-12-12 15:25:00,47.8,17.9,30.36,North,10,2.0,7.0,30,0.00,,CLR,0.00,42.00,VWS V15.00,2013-12-12 20:25:00,
2013-12-12 15:28:00,48.8,18.8,30.36,NW,323,3.0,7.0,30,0.00,,CLR,0.00,253.00,VWS V14.01,2013-12-12 20:28:00,
2013-12-12 15:30:00,47.3,19.7,30.36,NNW,337,2.0,7.0,33,0.00,,CLR,0.00,46.00,VWS V15.00,2013-12-12 20:30:00,
2013-12-12 15:34:00,48.7,17.9,30.36,NW,311,5.0,7.0,29,0.00,,CLR,0.00,236.00,VWS V14.01,2013-12-12 20:34:00,
2013-12-12 15:35:00,47.0,18.7,30.36,North,5,1.0,7.0,32,0.00,,CLR,0.00,32.00,VWS V15.00,2013-12-12 20:35:00,
2013-12-12 15:39:00,48.4,18.4,30.36,NW,306,3.0,7.0,30,0.00,,CLR,0.00,216.00,VWS V14.01,2013-12-12 20:39:00,
2013-12-12 15:40:00,46.6,19.8,30.36,NNE,30,2.0,7.0,34,0.00,,CLR,0.00,25.00,VWS V15.00,2013-12-12 20:40:00,
2013-12-12 15:44:00,48.5,18.5,30.36,North,355,3.0,7.0,30,0.00,,CLR,0.00,199.00,VWS V14.01,2013-12-12 20:44:00,
2013-12-12 15:45:00,46.1,19.3,30.37,NNE,30,2.0,7.0,34,0.00,,CLR,0.00,19.00,VWS V15.00,2013-12-12 20:45:00,
2013-12-12 15:49:00,48.4,17.6,30.36,West,261,7.0,7.0,29,0.00,,CLR,0.00,181.00,VWS V14.01,2013-12-12 20:49:00,
2013-12-12 15:50:00,45.7,19.0,30.36,NNE,26,0.0,7.0,34,0.00,,CLR,0.00,16.00,VWS V15.00,2013-12-12 20:50:00,
2013-12-12 15:54:00,48.3,17.5,30.36,NW,309,2.0,7.0,29,0.00,,CLR,0.00,165.00,VWS V14.01,2013-12-12 20:54:00,
2013-12-12 15:55:00,45.3,18.6,30.37,NNE,24,2.0,7.0,34,0.00,,CLR,0.00,12.00,VWS V15.00,2013-12-12 20:55:00,
2013-12-12 15:59:00,48.2,19.7,30.36,NNW,340,0.0,7.0,32,0.00,,CLR,0.00,148.00,VWS V14.01,2013-12-12 20:59:00,
2013-12-12 16:00:00,45.0,18.3,30.37,NNE,24,1.0,7.0,34,0.00,,CLR,0.00,11.00,VWS V15.00,2013-12-12 21:00:00,
2013-12-12 16:04:00,48.5,18.5,30.36,North,360,4.0,7.0,30,0.00,,CLR,0.00,130.00,VWS V14.01,2013-12-12 21:04:00,
2013-12-12 16:05:00,44.5,19.2,30.37,NNE,21,1.0,7.0,36,0.00,,CLR,0.00,9.00,VWS V15.00,2013-12-12 21:05:00,
2013-12-12 16:09:00,48.4,18.4,30.36,WNW,283,6.0,7.0,30,0.00,,CLR,0.00,113.00,VWS V14.01,2013-12-12 21:09:00,
2013-12-12 16:10:00,44.0,20.0,30.37,NNE,21,1.0,7.0,38,0.00,,CLR,0.00,5.00,VWS V15.00,2013-12-12 21:10:00,
2013-12-12 16:14:00,48.3,18.3,30.36,WNW,288,2.0,7.0,30,0.00,,CLR,0.00,97.00,VWS V14.01,2013-12-12 21:14:00,
2013-12-12 16:15:00,43.6,19.7,30.37,NNE,21,1.0,7.0,38,0.00,,CLR,0.00,0.00,VWS V15.00,2013-12-12 21:15:00,
2013-12-12 16:19:00,48.3,19.1,30.36,WNW,299,3.0,7.0,31,0.00,,CLR,0.00,81.00,VWS V14.01,2013-12-12 21:19:00,
2013-12-12 16:20:00,43.1,19.2,30.37,NNE,20,1.0,7.0,38,0.00,,CLR,0.00,0.00,VWS V15.00,2013-12-12 21:20:00,
2013-12-12 16:24:00,47.8,17.9,30.36,NW,311,4.0,7.0,30,0.00,,CLR,0.00,42.00,VWS V14.01,2013-12-12 21:24:00,
2013-12-12 16:25:00,47.8,17.9,30.36,North,5,3.0,7.0,30,0.00,,CLR,0.00,40.00,VWS V14.01,2013-12-12 21:25:00,
2013-12-12 16:30:00,47.3,19.7,30.37,North,355,2.0,7.0,33,0.00,,CLR,0.00,44.00,VWS V14.01,2013-12-12 21:30:00,
2013-12-12 16:35:00,46.9,18.6,30.36,North,5,2.0,7.0,32,0.00,,CLR,0.00,30.00,VWS V14.01,2013-12-12 21:35:00,
2013-12-12 16:40:00,46.6,19.8,30.37,NE,36,2.0,7.0,34,0.00,,CLR,0.00,25.00,VWS V14.01,2013-12-12 21:40:00,
2013-12-12 16:45:00,46.1,19.3,30.37,NNE,30,2.0,7.0,34,0.00,,CLR,0.00,19.00,VWS V14.01,2013-12-12 21:45:00,
2013-12-12 16:50:00,45.7,19.0,30.36,NNE,26,1.0,7.0,34,0.00,,CLR,0.00,16.00,VWS V14.01,2013-12-12 21:50:00,
2013-12-12 16:55:00,45.2,19.2,30.37,NNE,24,1.0,7.0,35,0.00,,CLR,0.00,12.00,VWS V14.01,2013-12-12 21:55:00,
2013-12-12 17:00:00,44.9,18.9,30.37,NNE,24,1.0,7.0,35,0.00,,CLR,0.00,11.00,VWS V14.01,2013-12-12 22:00:00,
2013-12-12 17:05:00,44.4,19.8,30.37,NNE,21,1.0,7.0,37,0.00,,CLR,0.00,7.00,VWS V14.01,2013-12-12 22:05:00,
2013-12-12 17:10:00,44.0,20.0,30.37,NNE,21,0.0,7.0,38,0.00,,CLR,0.00,5.00,VWS V14.01,2013-12-12 22:10:00,
2013-12-12 17:15:00,38.0,22.0,30.36,NE,34,2.0,7.0,52,0.00,,CLR,0.00,0.00,VWS V15.00,2013-12-12 22:15:00,
2013-12-12 17:16:00,43.6,20.9,30.37,NNE,21,1.0,7.0,40,0.00,,CLR,0.00,0.00,VWS V14.01,2013-12-12 22:16:00,
2013-12-12 17:20:00,37.2,20.8,30.37,NE,34,1.0,7.0,51,0.00,,CLR,0.00,0.00,VWS V15.00,2013-12-12 22:20:00,
2013-12-12 17:21:00,43.0,20.4,30.37,NNE,20,0.0,7.0,40,0.00,,CLR,0.00,0.00,VWS V14.01,2013-12-12 22:21:00,
2013-12-12 17:25:00,37.0,20.6,30.37,NE,34,1.0,7.0,51,0.00,,CLR,0.00,0.00,VWS V15.00,2013-12-12 22:25:00,
2013-12-12 17:26:00,42.5,19.3,30.37,NNE,18,2.0,7.0,39,0.00,,CLR,0.00,0.00,VWS V14.01,2013-12-12 22:26:00,
2013-12-12 17:30:00,36.9,20.5,30.37,NE,34,0.0,7.0,51,0.00,,CLR,0.00,0.00,VWS V15.00,2013-12-12 22:30:00,
2013-12-12 17:31:00,41.8,19.8,30.37,NNE,18,0.0,7.0,41,0.00,,CLR,0.00,0.00,VWS V14.01,2013-12-12 22:31:00,
2013-12-12 17:35:00,36.8,20.4,30.38,NE,34,0.0,7.0,51,0.00,,CLR,0.00,0.00,VWS V15.00,2013-12-12 22:35:00,
2013-12-12 17:36:00,41.1,19.8,30.37,North,11,1.0,7.0,42,0.00,,CLR,0.00,0.00,VWS V14.01,2013-12-12 22:36:00,
2013-12-12 17:41:00,40.5,19.8,30.37,North,11,0.0,7.0,43,0.00,,CLR,0.00,0.00,VWS V14.01,2013-12-12 22:41:00,
2013-12-12 17:45:00,36.5,20.1,30.38,NE,34,0.0,7.0,51,0.00,,CLR,0.00,0.00,VWS V15.00,2013-12-12 22:45:00,
2013-12-12 17:46:00,40.0,19.3,30.37,North,11,1.0,7.0,43,0.00,,CLR,0.00,0.00,VWS V14.01,2013-12-12 22:46:00,
2013-12-12 17:50:00,36.1,19.3,30.38,East,99,2.0,7.0,50,0.00,,CLR,0.00,0.00,VWS V15.00,2013-12-12 22:50:00,
2013-12-12 17:51:00,39.6,19.5,30.37,SE,136,0.0,7.0,44,0.00,,CLR,0.00,0.00,VWS V14.01,2013-12-12 22:51:00,
2013-12-12 17:55:00,36.2,20.7,30.38,ESE,120,2.0,7.0,53,0.00,,CLR,0.00,0.00,VWS V15.00,2013-12-12 22:55:00,
2013-12-12 17:56:00,39.1,19.6,30.37,SE,145,2.0,7.0,45,0.00,,CLR,0.00,0.00,VWS V14.01,2013-12-12 22:56:00,
2013-12-12 18:00:00,36.0,21.0,30.38,ESE,120,0.0,7.0,54,0.00,,CLR,0.00,0.00,VWS V15.00,2013-12-12 23:00:00,
2013-12-12 18:01:00,39.6,20.0,30.37,SE,144,1.0,7.0,45,0.00,,CLR,0.00,0.00,VWS V14.01,2013-12-12 23:01:00,
2013-12-12 18:05:00,35.5,20.5,30.38,ESE,120,0.0,7.0,54,0.00,,CLR,0.00,0.00,VWS V15.00,2013-12-12 23:05:00,
2013-12-12 18:06:00,39.5,21.0,30.37,ENE,70,2.0,7.0,47,0.00,,CLR,0.00,0.00,VWS V14.01,2013-12-12 23:06:00,
2013-12-12 18:10:00,35.1,21.4,30.38,ESE,120,0.0,7.0,57,0.00,,CLR,0.00,0.00,VWS V15.00,2013-12-12 23:10:00,
2013-12-12 18:11:00,38.4,21.4,30.37,ENE,67,1.0,7.0,50,0.00,,CLR,0.00,0.00,VWS V14.01,2013-12-12 23:11:00,
2013-12-12 18:15:00,34.7,21.5,30.38,ENE,73,1.0,7.0,58,0.00,,CLR,0.00,0.00,VWS V15.00,2013-12-12 23:15:00,
2013-12-12 18:16:00,37.7,21.7,30.37,NE,34,2.0,7.0,52,0.00,,CLR,0.00,0.00,VWS V14.01,2013-12-12 23:16:00,
2013-12-12 18:20:00,34.4,20.3,30.38,NE,55,0.0,7.0,56,0.00,,CLR,0.00,0.00,VWS V15.00,2013-12-12 23:20:00,
2013-12-12 18:22:00,37.1,20.7,30.37,NE,34,1.0,7.0,51,0.00,,CLR,0.00,0.00,VWS V14.01,2013-12-12 23:22:00,
2013-12-12 18:25:00,34.1,20.1,30.39,NE,55,0.0,7.0,56,0.00,,CLR,0.00,0.00,VWS V15.00,2013-12-12 23:25:00,
2013-12-12 18:27:00,37.0,20.6,30.37,NE,34,0.0,7.0,51,0.00,,CLR,0.00,0.00,VWS V14.01,2013-12-12 23:27:00,
2013-12-12 18:30:00,33.8,19.8,30.39,NE,55,0.0,7.0,56,0.00,,CLR,0.00,0.00,VWS V15.00,2013-12-12 23:30:00,
2013-12-12 18:32:00,36.8,20.8,30.38,NE,34,1.0,7.0,52,0.00,,CLR,0.00,0.00,VWS V14.01,2013-12-12 23:32:00,
2013-12-12 18:35:00,33.7,20.1,30.39,SSE,163,2.0,7.0,57,0.00,,CLR,0.00,0.00,VWS V15.00,2013-12-12 23:35:00,
2013-12-12 18:37:00,36.8,20.4,30.38,NE,34,0.0,7.0,51,0.00,,CLR,0.00,0.00,VWS V14.01,2013-12-12 23:37:00,
2013-12-12 18:40:00,33.0,21.8,30.39,SSW,201,1.0,7.0,63,0.00,,CLR,0.00,0.00,VWS V15.00,2013-12-12 23:40:00,
2013-12-12 18:42:00,36.6,20.2,30.38,NE,34,0.0,7.0,51,0.00,,CLR,0.00,0.00,VWS V14.01,2013-12-12 23:42:00,
2013-12-12 18:45:00,32.5,20.9,30.40,SSW,201,0.0,7.0,62,0.00,,CLR,0.00,0.00,VWS V15.00,2013-12-12 23:45:00,
2013-12-12 18:47:00,36.3,19.9,30.38,NE,34,0.0,7.0,51,0.00,,CLR,0.00,0.00,VWS V14.01,2013-12-12 23:47:00,
2013-12-12 18:50:00,32.2,21.0,30.40,SSW,201,0.0,7.0,63,0.00,,CLR,0.00,0.00,VWS V15.00,2013-12-12 23:50:00,
2013-12-12 18:52:00,36.1,20.6,30.38,ESE,113,2.0,7.0,53,0.00,,CLR,0.00,0.00,VWS V14.01,2013-12-12 23:52:00,
2013-12-12 18:55:00,32.0,21.6,30.40,West,259,2.0,7.0,65,0.00,,CLR,0.00,0.00,VWS V15.00,2013-12-12 23:55:00,
2013-12-12 18:57:00,36.2,21.2,30.38,ESE,120,0.0,7.0,54,0.00,,CLR,0.00,0.00,VWS V14.01,2013-12-12 23:57:00,
2013-12-12 19:00:00,31.4,22.4,30.40,West,259,0.0,7.0,69,0.00,,CLR,0.00,0.00,VWS V15.00,2013-12-13 00:00:00,
2013-12-12 19:02:00,35.7,21.6,30.38,ESE,120,0.0,7.0,56,0.00,,CLR,0.00,0.00,VWS V14.01,2013-12-13 00:02:00,
2013-12-12 19:05:00,30.9,21.6,30.39,West,259,1.0,7.0,68,0.00,,CLR,0.00,0.00,VWS V15.00,2013-12-13 00:05:00,
2013-12-12 19:07:00,35.3,21.2,30.38,ESE,120,0.0,7.0,56,0.00,,CLR,0.00,0.00,VWS V14.01,2013-12-13 00:07:00,
2013-12-12 19:10:00,30.6,21.3,30.40,West,267,0.0,7.0,68,0.00,,CLR,0.00,0.00,VWS V15.00,2013-12-13 00:10:00,
2013-12-12 19:12:00,34.8,21.1,30.38,ESE,120,1.0,7.0,57,0.00,,CLR,0.00,0.00,VWS V14.01,2013-12-13 00:12:00,
2013-12-12 19:17:00,34.5,21.3,30.38,NE,55,0.0,7.0,58,0.00,,CLR,0.00,0.00,VWS V14.01,2013-12-13 00:17:00,
2013-12-12 19:20:00,31.3,19.0,30.40,North,360,1.0,7.0,60,0.00,,CLR,0.00,0.00,VWS V15.00,2013-12-13 00:20:00,
2013-12-12 19:23:00,34.2,20.1,30.39,NE,55,0.0,7.0,56,0.00,,CLR,0.00,0.00,VWS V14.01,2013-12-13 00:23:00,
2013-12-12 19:25:00,31.7,19.4,30.40,North,360,0.0,7.0,60,0.00,,CLR,0.00,0.00,VWS V15.00,2013-12-13 00:25:00,
2013-12-12 19:28:00,33.9,19.9,30.39,NE,55,0.0,7.0,56,0.00,,CLR,0.00,0.00,VWS V14.01,2013-12-13 00:28:00,
2013-12-12 19:30:00,31.5,22.5,30.40,South,185,1.0,7.0,69,0.00,,CLR,0.00,0.00,VWS V15.00,2013-12-13 00:30:00,
2013-12-12 19:33:00,33.7,19.7,30.39,NE,55,1.0,7.0,56,0.00,,CLR,0.00,0.00,VWS V14.01,2013-12-13 00:33:00,
2013-12-12 19:35:00,30.8,20.8,30.41,South,185,0.0,7.0,66,0.00,,CLR,0.00,0.00,VWS V15.00,2013-12-13 00:35:00,
2013-12-12 19:38:00,33.3,22.1,30.39,SSW,201,2.0,7.0,63,0.00,,CLR,0.00,0.00,VWS V14.01,2013-12-13 00:38:00,
2013-12-12 19:40:00,30.4,21.1,30.41,South,185,1.0,7.0,68,0.00,,CLR,0.00,0.00,VWS V15.00,2013-12-13 00:40:00,
2013-12-12 19:43:00,32.6,21.4,30.40,SSW,201,0.0,7.0,63,0.00,,CLR,0.00,0.00,VWS V14.01,2013-12-13 00:43:00,
2013-12-12 19:45:00,30.1,21.5,30.40,South,185,1.0,7.0,70,0.00,,CLR,0.00,0.00,VWS V15.00,2013-12-13 00:45:00,
2013-12-12 19:48:00,32.3,21.1,30.40,SSW,201,0.0,7.0,63,0.00,,CLR,0.00,0.00,VWS V14.01,2013-12-13 00:48:00,
2013-12-12 19:50:00,29.9,20.6,30.40,South,173,0.0,7.0,68,0.00,,CLR,0.00,0.00,VWS V15.00,2013-12-13 00:50:00,
2013-12-12 19:53:00,32.0,20.9,30.40,West,259,1.0,7.0,63,0.00,,CLR,0.00,0.00,VWS V14.01,2013-12-13 00:53:00,
2013-12-12 19:55:00,30.0,19.3,30.40,South,173,1.0,7.0,64,0.00,,CLR,0.00,0.00,VWS V15.00,2013-12-13 00:55:00,
2013-12-12 19:58:00,31.5,22.5,30.40,West,259,1.0,7.0,69,0.00,,CLR,0.00,0.00,VWS V14.01,2013-12-13 00:58:00,
2013-12-12 20:00:00,30.6,18.8,30.40,SSE,148,1.0,7.0,61,0.00,,CLR,0.00,0.00,VWS V15.00,2013-12-13 01:00:00,
2013-12-12 20:03:00,31.0,22.0,30.40,West,259,1.0,7.0,69,0.00,,CLR,0.00,0.00,VWS V14.01,2013-12-13 01:03:00,
2013-12-12 20:05:00,31.9,19.2,30.40,SE,146,0.0,7.0,59,0.00,,CLR,0.00,0.00,VWS V15.00,2013-12-13 01:05:00,
2013-12-12 20:08:00,30.6,21.3,30.39,West,267,1.0,7.0,68,0.00,,CLR,0.00,0.00,VWS V14.01,2013-12-13 01:08:00,
2013-12-12 20:13:00,30.6,19.9,30.40,North,360,1.0,7.0,64,0.00,,CLR,0.00,0.00,VWS V14.01,2013-12-13 01:13:00,
2013-12-12 20:15:00,32.5,19.4,30.40,SE,142,0.0,7.0,58,0.00,,CLR,0.00,0.00,VWS V15.00,2013-12-13 01:15:00,
2013-12-12 20:18:00,31.1,19.2,30.40,North,360,1.0,7.0,61,0.00,,CLR,0.00,0.00,VWS V14.01,2013-12-13 01:18:00,
2013-12-12 20:20:00,32.2,20.3,30.40,SE,142,0.0,7.0,61,0.00,,CLR,0.00,0.00,VWS V15.00,2013-12-13 01:20:00,
2013-12-12 20:23:00,31.6,19.3,30.40,North,360,0.0,7.0,60,0.00,,CLR,0.00,0.00,VWS V14.01,2013-12-13 01:23:00,
2013-12-12 20:25:00,31.7,20.2,30.40,SE,142,1.0,7.0,62,0.00,,CLR,0.00,0.00,VWS V15.00,2013-12-13 01:25:00,
2013-12-12 20:28:00,31.6,22.6,30.40,South,185,1.0,7.0,69,0.00,,CLR,0.00,0.00,VWS V14.01,2013-12-13 01:28:00,
2013-12-12 20:30:00,31.1,18.9,30.40,SE,142,0.0,7.0,60,0.00,,CLR,0.00,0.00,VWS V15.00,2013-12-13 01:30:00,
2013-12-12 20:34:00,30.9,21.2,30.41,South,185,0.0,7.0,67,0.00,,CLR,0.00,0.00,VWS V14.01,2013-12-13 01:34:00,
2013-12-12 20:35:00,30.8,19.3,30.40,SE,142,0.0,7.0,62,0.00,,CLR,0.00,0.00,VWS V15.00,2013-12-13 01:35:00,
2013-12-12 20:39:00,30.5,21.2,30.41,South,185,0.0,7.0,68,0.00,,CLR,0.00,0.00,VWS V14.01,2013-12-13 01:39:00,
2013-12-12 20:40:00,30.6,19.5,30.40,SE,142,1.0,7.0,63,0.00,,CLR,0.00,0.00,VWS V15.00,2013-12-13 01:40:00,
2013-12-12 20:44:00,30.1,21.5,30.40,South,185,0.0,7.0,70,0.00,,CLR,0.00,0.00,VWS V14.01,2013-12-13 01:44:00,
2013-12-12 20:45:00,30.4,19.3,30.40,SE,128,1.0,7.0,63,0.00,,CLR,0.00,0.00,VWS V15.00,2013-12-13 01:45:00,
2013-12-12 20:49:00,29.9,21.0,30.40,South,175,1.0,7.0,69,0.00,,CLR,0.00,0.00,VWS V14.01,2013-12-13 01:49:00,
2013-12-12 20:50:00,30.3,20.0,30.40,ENE,58,2.0,7.0,65,0.00,,CLR,0.00,0.00,VWS V15.00,2013-12-13 01:50:00,
2013-12-12 20:54:00,29.9,19.6,30.40,South,173,0.0,7.0,65,0.00,,CLR,0.00,0.00,VWS V14.01,2013-12-13 01:54:00,
2013-12-12 20:55:00,30.5,19.8,30.40,NNE,16,1.0,7.0,64,0.00,,CLR,0.00,0.00,VWS V15.00,2013-12-13 01:55:00,
2013-12-12 20:59:00,30.5,19.0,30.40,SSE,155,1.0,7.0,62,0.00,,CLR,0.00,0.00,VWS V14.01,2013-12-13 01:59:00,
2013-12-12 21:00:00,30.5,20.1,30.40,NNE,16,0.0,7.0,65,0.00,,CLR,0.00,0.00,VWS V15.00,2013-12-13 02:00:00,
2013-12-12 21:04:00,31.8,19.5,30.40,SE,146,0.0,7.0,60,0.00,,CLR,0.00,0.00,VWS V14.01,2013-12-13 02:04:00,
2013-12-12 21:05:00,30.3,20.3,30.39,NNE,16,0.0,7.0,66,0.00,,CLR,0.00,0.00,VWS V15.00,2013-12-13 02:05:00,
2013-12-12 21:09:00,32.4,19.7,30.40,SE,142,1.0,7.0,59,0.00,,CLR,0.00,0.00,VWS V14.01,2013-12-13 02:09:00,
2013-12-12 21:10:00,30.0,19.7,30.39,NNE,16,0.0,7.0,65,0.00,,CLR,0.00,0.00,VWS V15.00,2013-12-13 02:10:00,
2013-12-12 21:14:00,32.5,19.4,30.40,SE,142,0.0,7.0,58,0.00,,CLR,0.00,0.00,VWS V14.01,2013-12-13 02:14:00,
2013-12-12 21:15:00,29.7,20.1,30.40,NNE,13,0.0,7.0,67,0.00,,CLR,0.00,0.00,VWS V15.00,2013-12-13 02:15:00,
2013-12-12 21:19:00,32.2,20.3,30.40,SE,142,0.0,7.0,61,0.00,,CLR,0.00,0.00,VWS V14.01,2013-12-13 02:19:00,
2013-12-12 21:20:00,29.5,18.8,30.39,NNE,13,0.0,7.0,64,0.00,,CLR,0.00,0.00,VWS V15.00,2013-12-13 02:20:00,
2013-12-12 21:24:00,31.7,20.2,30.40,SE,142,0.0,7.0,62,0.00,,CLR,0.00,0.00,VWS V14.01,2013-12-13 02:24:00,
2013-12-12 21:25:00,29.4,19.5,30.40,NNE,13,0.0,7.0,66,0.00,,CLR,0.00,0.00,VWS V15.00,2013-12-13 02:25:00,
2013-12-12 21:29:00,31.1,18.9,30.40,SE,142,0.0,7.0,60,0.00,,CLR,0.00,0.00,VWS V14.01,2013-12-13 02:29:00,
2013-12-12 21:30:00,29.5,18.5,30.39,NNE,13,0.0,7.0,63,0.00,,CLR,0.00,0.00,VWS V15.00,2013-12-13 02:30:00,
2013-12-12 21:34:00,30.8,19.3,30.40,SE,142,0.0,7.0,62,0.00,,CLR,0.00,0.00,VWS V14.01,2013-12-13 02:34:00,
2013-12-12 21:35:00,29.7,19.0,30.39,NNE,13,0.0,7.0,64,0.00,,CLR,0.00,0.00,VWS V15.00,2013-12-13 02:35:00,
2013-12-12 21:39:00,30.6,19.5,30.40,SE,142,1.0,7.0,63,0.00,,CLR,0.00,0.00,VWS V14.01,2013-12-13 02:39:00,
2013-12-12 21:40:00,29.7,19.0,30.39,NNE,13,0.0,7.0,64,0.00,,CLR,0.00,0.00,VWS V15.00,2013-12-13 02:40:00,
2013-12-12 21:45:00,30.4,19.3,30.40,SE,128,1.0,7.0,63,0.00,,CLR,0.00,0.00,VWS V14.01,2013-12-13 02:45:00,
2013-12-12 21:50:00,30.3,20.0,30.40,NE,51,1.0,7.0,65,0.00,,CLR,0.00,0.00,VWS V14.01,2013-12-13 02:50:00,
2013-12-12 21:55:00,30.4,19.7,30.40,NNE,16,1.0,7.0,64,0.00,,CLR,0.00,0.00,VWS V14.01,2013-12-13 02:55:00,
2013-12-12 22:00:00,30.5,20.1,30.40,NNE,16,0.0,7.0,65,0.00,,CLR,0.00,0.00,VWS V14.01,2013-12-13 03:00:00,
2013-12-12 22:05:00,30.3,20.3,30.39,NNE,16,0.0,7.0,66,0.00,,CLR,0.00,0.00,VWS V14.01,2013-12-13 03:05:00,
2013-12-12 22:10:00,30.0,19.7,30.39,NNE,13,1.0,7.0,65,0.00,,CLR,0.00,0.00,VWS V14.01,2013-12-13 03:10:00,
2013-12-12 22:15:00,29.7,20.1,30.40,NNE,13,0.0,7.0,67,0.00,,CLR,0.00,0.00,VWS V14.01,2013-12-13 03:15:00,
2013-12-12 22:20:00,29.5,18.8,30.39,NNE,13,0.0,7.0,64,0.00,,CLR,0.00,0.00,VWS V14.01,2013-12-13 03:20:00,
2013-12-12 22:25:00,29.5,19.9,30.40,NNE,13,0.0,7.0,67,0.00,,CLR,0.00,0.00,VWS V14.01,2013-12-13 03:25:00,
2013-12-12 22:30:00,29.5,18.5,30.39,NNE,13,0.0,7.0,63,0.00,,CLR,0.00,0.00,VWS V14.01,2013-12-13 03:30:00,
2013-12-12 22:35:00,29.8,19.1,30.39,NNE,13,0.0,7.0,64,0.00,,CLR,0.00,0.00,VWS V14.01,2013-12-13 03:35:00,
2013-12-12 22:40:00,29.7,19.0,30.39,NNE,13,0.0,7.0,64,0.00,,CLR,0.00,0.00,VWS V14.01,2013-12-13 03:40:00,
2013-12-12 22:45:00,29.5,18.8,30.39,NNE,13,0.0,7.0,64,0.00,,CLR,0.00,0.00,VWS V14.01,2013-12-13 03:45:00,
2013-12-12 22:50:00,29.5,19.2,30.39,NNE,13,0.0,7.0,65,0.00,,CLR,0.00,0.00,VWS V14.01,2013-12-13 03:50:00,
2013-12-12 22:55:00,28.9,18.6,30.38,NNE,13,0.0,7.0,65,0.00,,CLR,0.00,0.00,VWS V15.00,2013-12-13 03:55:00,
2013-12-12 22:56:00,29.4,18.7,30.39,NNE,13,0.0,7.0,64,0.00,,CLR,0.00,0.00,VWS V14.01,2013-12-13 03:56:00,
2013-12-12 23:00:00,28.8,18.9,30.38,NNE,13,0.0,7.0,66,0.00,,CLR,0.00,0.00,VWS V15.00,2013-12-13 04:00:00,
2013-12-12 23:01:00,29.3,17.9,30.39,NNE,13,0.0,7.0,62,0.00,,CLR,0.00,0.00,VWS V14.01,2013-12-13 04:01:00,
2013-12-12 23:05:00,28.6,18.7,30.38,NNE,13,0.0,7.0,66,0.00,,CLR,0.00,0.00,VWS V15.00,2013-12-13 04:05:00,
2013-12-12 23:06:00,29.2,18.9,30.39,NNE,13,0.0,7.0,65,0.00,,CLR,0.00,0.00,VWS V14.01,2013-12-13 04:06:00,
2013-12-12 23:10:00,28.4,18.5,30.38,NNE,13,0.0,7.0,66,0.00,,CLR,0.00,0.00,VWS V15.00,2013-12-13 04:10:00,
2013-12-12 23:11:00,29.1,18.5,30.39,NNE,13,0.0,7.0,64,0.00,,CLR,0.00,0.00,VWS V14.01,2013-12-13 04:11:00,
2013-12-12 23:15:00,28.3,18.8,30.38,NNE,13,0.0,7.0,67,0.00,,CLR,0.00,0.00,VWS V15.00,2013-12-13 04:15:00,
2013-12-12 23:16:00,29.0,18.7,30.39,NNE,13,0.0,7.0,65,0.00,,CLR,0.00,0.00,VWS V14.01,2013-12-13 04:16:00,
2013-12-12 23:20:00,28.3,18.8,30.38,NNE,13,0.0,7.0,67,0.00,,CLR,0.00,0.00,VWS V15.00,2013-12-13 04:20:00,
2013-12-12 23:21:00,28.7,18.8,30.39,NNE,13,1.0,7.0,66,0.00,,CLR,0.00,0.00,VWS V14.01,2013-12-13 04:21:00,
2013-12-12 23:25:00,28.1,18.6,30.38,NNE,13,0.0,7.0,67,0.00,,CLR,0.00,0.00,VWS V15.00,2013-12-13 04:25:00,
2013-12-12 23:26:00,28.9,18.6,30.38,NNE,13,0.0,7.0,65,0.00,,CLR,0.00,0.00,VWS V14.01,2013-12-13 04:26:00,
2013-12-12 23:30:00,28.2,19.0,30.38,NNE,13,1.0,7.0,68,0.00,,CLR,0.00,0.00,VWS V15.00,2013-12-13 04:30:00,
2013-12-12 23:31:00,29.0,18.7,30.38,NNE,13,0.0,7.0,65,0.00,,CLR,0.00,0.00,VWS V14.01,2013-12-13 04:31:00,
2013-12-12 23:36:00,28.9,18.6,30.38,NNE,13,0.0,7.0,65,0.00,,CLR,0.00,0.00,VWS V14.01,2013-12-13 04:36:00,
2013-12-12 23:41:00,28.8,18.9,30.38,NNE,13,0.0,7.0,66,0.00,,CLR,0.00,0.00,VWS V14.01,2013-12-13 04:41:00,
2013-12-12 23:45:00,29.0,18.7,30.37,NNE,13,0.0,7.0,65,0.00,,CLR,0.00,0.00,VWS V15.00,2013-12-13 04:45:00,
2013-12-12 23:46:00,28.9,19.3,30.38,NNE,13,0.0,7.0,67,0.00,,CLR,0.00,0.00,VWS V14.01,2013-12-13 04:46:00,
2013-12-12 23:50:00,29.2,18.9,30.37,NNE,13,0.0,7.0,65,0.00,,CLR,0.00,0.00,VWS V15.00,2013-12-13 04:50:00,
2013-12-12 23:51:00,29.0,19.1,30.38,NNE,13,0.0,7.0,66,0.00,,CLR,0.00,0.00,VWS V14.01,2013-12-13 04:51:00,
2013-12-12 23:55:00,29.2,19.3,30.37,NNE,13,2.0,7.0,66,0.00,,CLR,0.00,0.00,VWS V15.00,2013-12-13 04:55:00,
2013-12-12 23:56:00,28.9,18.6,30.38,NNE,13,0.0,7.0,65,0.00,,CLR,0.00,0.00,VWS V14.01,2013-12-13 04:56:00,